Skip Page Navigation
NASA JPL Caltech
NASA Logo - Jet Propulsion Laboratory + View the NASA Portal
+ Center for Near-Earth Object Studies
JPL Home Earth Solar System Stars & Galaxies Technology
JPL Solar System Dynamics
BODIES ORBITS EPHEMERIDES TOOLS PHYSICAL DATA DISCOVERY FAQ SITE MAP
IMPORTANT: The SSD Announcement email list is now available. Major changes are coming in the near future, including possible hostname and/or URL changes. To be notified of such changes, subscribe to this email list.

Please visit this page for more details.


JPL Small-Body Database Browser
Search: [ help ]  
357792 (2005 TX24)
Classification: Main-belt Asteroid          SPK-ID: 2357792
Ephemeris | Orbit Diagram | Orbital Elements | Mission Design | Physical Parameters | Discovery Circumstances | Close-Approach Data ]

[ show orbit diagram ]
Orbital Elements at Epoch 2458600.5 (2019-Apr-27.0) TDB
Reference: JPL 10 (heliocentric ecliptic J2000)
 Element Value Uncertainty (1-sigma)   Units 
e .1166679393823055 7.0712e-08  
a 3.116167345700137 3.9518e-08 au
q 2.752610522706874 2.1459e-07 au
i 4.06337674243848 7.5922e-06 deg
node 41.72963779731977 0.00010355 deg
peri 114.3377935933698 0.00010986 deg
M 58.32448764474644 3.3194e-05 deg
tp 2458274.979745094733
(2018-Jun-05.47974509)
0.00018532 TDB
period 2009.229682045082
5.50
3.822e-05
1.046e-07
d
yr
n .1791731444229792 3.4083e-09 deg/d
Q 3.479724168693401 4.4128e-08 au
  Orbit Determination Parameters
   # obs. used (total)      126  
   data-arc span      6300 days (17.25 yr)  
   first obs. used      2002-03-10  
   last obs. used      2019-06-09  
   planetary ephem.      DE431  
   SB-pert. ephem.      SB431-N16  
   condition code      0  
   norm. resid. RMS      .56589  
   source      ORB  
   producer      Otto Matic  
   solution date      2019-Sep-24 06:43:06  

Additional Information
 Earth MOID = 1.76581 au 
 Jupiter MOID = 1.51429 au 
 T_jup = 3.203 
[ show covariance matrix ]

Ephemeris | Orbit Diagram | Orbital Elements | Mission Design | Physical Parameters | Discovery Circumstances | Close-Approach Data ]

Physical Parameter Table
Parameter Symbol Value Units Sigma Reference Notes
absolute magnitude H 16.3   n/a MPO437511  

357792 (2005 TX24)          Discovered 2005-Oct-01 by Mt. Lemmon Survey at Mount Lemmon
Reference: 20130327/Numbers.arcLast Updated: 2013-03-29

[ show close-approach data ]
Ephemeris | Orbit Diagram | Orbital Elements | Mission Design | Physical Parameters | Discovery Circumstances | Close-Approach Data ]
ABOUT SSD CREDITS/AWARDS PRIVACY/COPYRIGHT GLOSSARY LINKS
FirstGov 2019-Dec-13 02:55 UT
(server date/time)  
NASA Home Page
Site Manager:   Ryan S. Park
Webmaster  Alan B. Chamberlin